sat.trackr.live / text

‹ back to catalog

STARLINK-31446

NORAD 59315 · 2024-056V

PAYLOAD ACTIVE UNKNOWN

§ Identity

Operator
Country
US
Launch date
2024-03-24
Launch site
AFETR
Launch vehicle
Mass (kg)
RCS (m²)

Purposes: comms

External: N2YO · Heavens-Above · Gunter

§ Orbital elements

Epoch: 2026-09-20T21:47:34.408032Z

Period
94.27 min
Inclination
43.0024°
Eccentricity
0.0001644
Mean motion
15.27570393 rev/d
Perigee alt
481.9 km
Apogee alt
484.2 km
Semi-major
6,861.2 km
B*
2.4227e-5
RAAN
207.9415°
Arg perigee
244.7565°
Mean anomaly
115.3116°
Rev number
14,101

§ Raw data

STARLINK-314461 59315U 24056V   26263.90803713  .00000404  00000+0  24227-4 0  99982 59315  43.0024 207.9415 0001644 244.7565 115.3116 15.27570393141011

JSON: /api/v1/satellites/59315 · /tle

For live sub-satellite position, see the globe view (requires WebGL).

§ Visibility from observer

Set your observer location to see the next 7 days of passes ≥ 10°. The values pass through the URL so the page stays shareable.

No JS? Fill the form by hand. The geolocation button needs JavaScript.